Regional Weather Roundup
Issued by NWS

Home | Current Version | Previous Version | Graphics & Text | Print | Product List | Glossary On
Versions: 1 2 3 4 5 6 7 8 9 10 11 12 13 14 15 16 17 18 19 20 21 22 23 24 25 26 27 28 29 30 31 32 33 34 35 36 37 38 39 40 41 42 43 44 45 46 47 48 49 50
000
ASUS43 KOAX 192010
RWRNE

WEATHER ROUNDUP FOR NEBRASKA
NATIONAL WEATHER SERVICE OMAHA NE
300 PM CDT THU OCT 19 2017

NOTES: SATELLITE DATA IS BEING USED TO AUGMENT CLOUD COVER ABOVE
       12000 FEET.
       "FAIR" INDICATES FEW OR NO CLOUDS BELOW 12,000 FEET WITH NO
       SIGNIFICANT WEATHER AND/OR OBSTRUCTIONS TO VISIBILITY.


NEZ001>004-019>022-054>056-192100-
NEBRASKA PANHANDLE

CITY           SKY/WX    TMP DP  RH WIND       PRES   REMARKS
SCOTTSBLUFF    FAIR      80  28  15 SE10      29.90F
ALLIANCE       FAIR      79  30  16 S14G23    29.90F
CHADRON        FAIR      85  11   6 S6        29.82F
GORDON         FAIR      82  25  12 SW14G21   29.87F
KIMBALL        FAIR      77  27  15 S13G21    29.96F
SIDNEY         FAIR      81  32  17 S15       29.94F
$$

NEZ057>060-069>072-079>082-192100-
SOUTHWEST NEBRASKA

CITY           SKY/WX    TMP DP  RH WIND       PRES   REMARKS
NORTH PLATTE   FAIR      79  47  32 S13       29.94F
IMPERIAL       FAIR      84  38  19 SE17G24   29.93F
LEXINGTON      FAIR      80  47  31 S16       29.96F
MCCOOK         FAIR      83  47  28 S17G26    29.94F
OGALLALA       FAIR      83  39  20 S15G21    29.92F
$$

NEZ005>010-023>029-035>040-094-192100-
NORTH CENTRAL NEBRASKA

CITY           SKY/WX    TMP DP  RH WIND       PRES   REMARKS
VALENTINE      FAIR      86  35  16 SW22G28   29.86F
AINSWORTH      FAIR      79  43  28 S17G24    29.90F
BROKEN BOW     FAIR      76  47  35 S15       29.95F
O`NEILL        FAIR      76  45  34 S14       29.93F
ORD            FAIR      77  46  33 S12       29.94F
THEDFORD       FAIR      80  43  26 S14G23    29.93F
$$

NEZ041-046>049-061>064-073>077-083>087-192100-
SOUTH CENTRAL NEBRASKA

CITY           SKY/WX    TMP DP  RH WIND       PRES   REMARKS
GRAND ISLAND   FAIR      79  47  32 S14       29.97F
AURORA         FAIR      80  45  29 S9        29.98F
HASTINGS       FAIR      79  44  28 S9G18     29.98F
HEBRON         FAIR      81  53  38 S9        29.99F
HOLDREGE       FAIR      79  49  34 S15G22    29.97F
KEARNEY        FAIR      81  46  29 S18       29.96F
YORK           FAIR      79  46  31 S9        29.98F
$$

NEZ011>018-030>034-042>045-192100-
NORTHEAST NEBRASKA

CITY           SKY/WX    TMP DP  RH WIND       PRES   REMARKS
NORFOLK        FAIR      78  48  34 S14G21    29.94F
ALBION         FAIR      78  48  35 S13       29.96F
BLAIR          FAIR      77  53  43 SE12      30.00F
COLUMBUS       FAIR      79  49  34 SE9       29.97F
FREMONT        FAIR      75  53  45 SE8G16    29.99F
TEKAMAH        FAIR      77  50  38 S9G21     29.98F
WAYNE          FAIR      75  48  38 S12G21    29.96F
$$

NEZ050>053-065>068-078-088>093-192100-
SOUTHEAST NEBRASKA

CITY           SKY/WX    TMP DP  RH WIND       PRES   REMARKS
LINCOLN        FAIR      79  52  38 S10       30.00F
OMAHA EPPLEY   FAIR      77  53  43 SE14      29.99F
BEATRICE       FAIR      78  56  46 S10       30.00F
FALLS CITY     FAIR      79  51  37 S13       30.02F
NEBRASKA CITY  FAIR      77  55  47 S13       30.01F
PLATTSMOUTH    FAIR      76  53  44 S8        30.01F
$$

NEZ044-045-051>053-067-192100-
OMAHA AREA

CITY           SKY/WX    TMP DP  RH WIND       PRES   REMARKS
OMAHA EPPLEY   FAIR      77  53  43 SE14      29.99F
BLAIR          FAIR      77  53  43 SE12      30.00F
FREMONT        FAIR      75  53  45 SE8G16    29.99F
MILLARD        FAIR      77  56  48 SE10      30.00F
OFFUTT AFB     FAIR      76  53  43 S8        29.99F
PLATTSMOUTH    FAIR      76  53  44 S8        30.01F
WAHOO          FAIR      79  50  36 SE10      29.99F
$$




USA.gov is the U.S. government's official web portal to all federal, state and local government web resources and services.